Flag for Germany Weather past 2 weeks in Suhl, Thuringia, Germany

Now
46 °F

Passing clouds.


Feels Like: 41 °F
Forecast: 34 / 44 °F
Wind: 9 mph from Southwest

Location: Meiningen

Current Time: Dec 23, 2014 at 5:44:03 AM

Latest Report: Dec 23, 2014 at 5:00 AM


Visibility: 44 mi

Pressure: 30.11 "Hg

Humidity: 83%

Dew point: 41 °F

Location of SuhlLocation

Historic Weather in Suhl — Graph

°F

Suhl temperature yesterday

Maximum temperature yesterday: 45 °F (at 11:00 PM)
Minimum temperature yesterday: 40 °F (at 12:00 AM)
Average temperature yesterday: 42 °F

Past Weeks' High & Low Weather Summary

 TemperatureHumidityPressure
High52 °F (Dec 18, 11:00 PM)100% (Dec 9, 6:00 AM)30.47 "Hg (Dec 9, 6:00 AM)
Low24 °F (Dec 9, 1:00 AM)70% (Dec 8, 3:00 PM)29.60 "Hg (Dec 12, 7:00 PM)
Average37 °F91%30.05 "Hg
* Reported Dec 8 3:00 AM — Dec 23 3:00 AM, Suhl, Weather by CustomWeather, © 2014

Note: Actual official high and low records may vary slightly from our data, if they occured in-between our weather recording intervals... More about our weather records

Advertising

Suhl weather history for previous 24 hours

 ConditionsComfort  
Time TempWeatherWind HumidityBarometerVisibility
3:00 AM
Dec 23
46 °FPassing clouds.7 mph82%30.11 "Hg43 mi
2:00 AM46 °FOvercast.8 mph83%30.12 "Hg28 mi
1:00 AM45 °FPassing clouds.7 mph84%30.12 "Hg43 mi
12:00 AM45 °FPassing clouds.8 mph86%30.13 "Hg43 mi
11:00 PM
Dec 22
45 °FPassing clouds.9 mph87%30.13 "Hg34 mi
10:00 PM44 °FPassing clouds.7 mph89%30.14 "Hg28 mi
9:00 PM44 °FPassing clouds.8 mph90%30.14 "Hg34 mi
8:00 PM43 °FOvercast.7 mph90%30.15 "Hg12 mi
7:00 PM43 °FDrizzle. Overcast.7 mph89%30.15 "Hg13 mi
6:00 PM42 °FPassing clouds.6 mph91%30.15 "Hg6 mi
5:00 PM42 °FDrizzle. Low clouds.8 mph90%30.14 "Hg5 mi
3:00 PM43 °FDrizzle. Low clouds.9 mph88%30.11 "Hg7 mi
2:00 PM42 °FDrizzle. Low clouds.7 mph90%30.14 "Hg12 mi
1:00 PM42 °FLow clouds.8 mph92%30.13 "Hg8 mi
12:00 PM42 °FLow clouds.7 mph92%30.16 "Hg10 mi
11:00 AM42 °FLow clouds.7 mph88%30.17 "Hg14 mi
9:00 AM41 °FOvercast.7 mph88%30.18 "Hg16 mi
8:00 AM41 °FRain. Low clouds.5 mph90%30.17 "Hg11 mi
7:00 AM41 °FLow clouds.3 mph88%30.17 "Hg28 mi
6:00 AM40 °FLow clouds.5 mph89%30.19 "Hg17 mi
5:00 AM40 °FLow clouds.6 mph89%30.21 "Hg28 mi
Weather by CustomWeather, © 2014

See weather overviewHow to use our weather pages